H1 CPF 1 NER 2013 10 10 9 7831 glonass107 H2 0706501 9107 32393 2013 10 10 0 0 0 2013 10 13 23 45 0 900 1 1 0 0 0 H9 10 0 56575 0.00000 0 9474966.713 -14844040.367 -18475899.510 10 0 56575 900.00000 0 11251750.281 -16056844.342 -16341552.029 10 0 56575 1800.00000 0 12701104.484 -17239055.349 -13890383.298 10 0 56575 2700.00000 0 13809187.320 -18328821.772 -11169885.021 10 0 56575 3600.00000 0 14575402.387 -19264724.143 -8232775.861 10 0 56575 4500.00000 0 15012178.752 -19988431.159 -5135986.837 10 0 56575 5400.00000 0 15144213.462 -20447246.372 -1939563.969 10 0 56575 6300.00000 0 15007208.768 -20596438.468 1294491.217 10 0 56575 7200.00000 0 14646157.376 -20401256.682 4503421.077 10 0 56575 8100.00000 0 14113248.091 -19838545.838 7624928.025 10 0 56575 9000.00000 0 13465480.243 -18897891.966 10598383.890 10 0 56575 9900.00000 0 12762087.616 -17582249.060 13366008.662 10 0 56575 10800.00000 0 12061880.811 -15908019.123 15873995.548 10 0 56575 11700.00000 0 11420620.469 -13904580.560 18073560.180 10 0 56575 12600.00000 0 10888532.591 -11613283.153 19921893.221 10 0 56575 13500.00000 0 10508071.270 -9085950.199 21382997.625 10 0 56575 14400.00000 0 10312023.788 -6382949.027 22428394.066 10 0 56575 15300.00000 0 10322038.579 -3570909.373 23037680.512 10 0 56575 16200.00000 0 10547638.872 -720183.774 23198934.891 10 0 56575 17100.00000 0 10985764.261 2097844.979 22908952.719 10 0 56575 18000.00000 0 11620860.275 4813497.686 22173314.724 10 0 56575 18900.00000 0 12425512.844 7361460.465 21006282.822 10 0 56575 19800.00000 0 13361601.504 9683263.890 19430525.996 10 0 56575 20700.00000 0 14381923.137 11729476.372 17476681.084 10 0 56575 21600.00000 0 15432218.036 13461520.726 15182756.677 10 0 56575 22500.00000 0 16453512.777 14853038.471 12593391.495 10 0 56575 23400.00000 0 17384680.783 15890745.406 9758981.750 10 0 56575 24300.00000 0 18165111.993 16574743.512 6734694.651 10 0 56575 25200.00000 0 18737378.229 16918277.232 3579387.717 10 0 56575 26100.00000 0 19049780.906 16946945.688 354455.665 10 0 56575 27000.00000 0 19058672.699 16697405.586 -2877371.865 10 0 56575 27900.00000 0 18730454.421 16215621.107 -6053257.471 10 0 56575 28800.00000 0 18043162.260 15554736.225 -9111483.201 10 0 56575 29700.00000 0 16987578.057 14772660.767 -11992653.244 10 0 56575 30600.00000 0 15567815.605 13929473.349 -14640848.277 10 0 56575 31500.00000 0 13801358.303 13084751.701 -17004708.739 10 0 56575 32400.00000 0 11718546.558 12294943.487 -19038426.277 10 0 56575 33300.00000 0 9361536.386 11610888.529 -20702624.626 10 0 56575 34200.00000 0 6782772.761 11075596.460 -21965113.604 10 0 56575 35100.00000 0 4043041.104 10722372.686 -22801502.697 10 0 56575 36000.00000 0 1209177.578 10573370.584 -23195663.429 10 0 56575 36900.00000 0 -1648467.286 10638629.855 -23140032.652 10 0 56575 37800.00000 0 -4458707.338 10915640.532 -22635751.805 10 0 56575 38700.00000 0 -7152232.069 11389450.291 -21692640.117 10 0 56575 39600.00000 0 -9664239.232 12033310.178 -20329002.614 10 0 56575 40500.00000 0 -11936881.160 12809831.574 -18571276.658 10 0 56575 41400.00000 0 -13921424.770 13672606.100 -16453523.498 10 0 56575 42300.00000 0 -15580036.805 14568220.925 -14016774.122 10 0 56575 43200.00000 0 -16887121.345 15438585.447 -11308241.291 10 0 56575 44100.00000 0 -17830154.880 16223472.211 -8380412.102 10 0 56575 45000.00000 0 -18409984.810 16863165.749 -5290037.918 10 0 56575 45900.00000 0 -18640579.529 17301108.213 -2097040.470 10 0 56575 46800.00000 0 -18548240.891 17486430.469 1136645.227 10 0 56575 47700.00000 0 -18170312.351 17376261.743 4348268.977 10 0 56575 48600.00000 0 -17553437.185 16937719.898 7475481.413 10 0 56575 49500.00000 0 -16751440.157 16149497.511 10457544.325 10 0 56575 50400.00000 0 -15822921.894 15002975.710 13236511.507 10 0 56575 51300.00000 0 -14828667.449 13502817.408 15758356.967 10 0 56575 52200.00000 0 -13828978.381 11667013.304 17974028.320 10 0 56575 53100.00000 0 -12881041.043 9526377.036 19840404.497 10 0 56575 54000.00000 0 -12036442.223 7123508.896 21321138.992 10 0 56575 54900.00000 0 -11338937.142 4511269.811 22387371.979 10 0 56575 55800.00000 0 -10822564.183 1750827.981 23018297.215 10 0 56575 56700.00000 0 -10510186.152 -1090641.629 23201572.505 10 0 56575 57600.00000 0 -10412519.880 -3942510.050 22933565.464 10 0 56575 58500.00000 0 -10527695.443 -6733393.683 22219429.460 10 0 56575 59400.00000 0 -10841363.902 -9393888.467 21073007.904 10 0 56575 60300.00000 0 -11327349.295 -11859225.338 19516568.331 10 0 56575 61200.00000 0 -11948817.547 -14071736.523 17580371.068 10 0 56575 62100.00000 0 -12659913.025 -15983030.058 15302080.541 10 0 56575 63000.00000 0 -13407793.420 -17555782.037 12726030.462 10 0 56575 63900.00000 0 -14134976.700 -18765071.950 9902357.235 10 0 56575 64800.00000 0 -14781900.321 -19599205.857 6886018.620 10 0 56575 65700.00000 0 -15289583.781 -20059993.670 3735717.195 10 0 56575 66600.00000 0 -15602281.062 -20162469.962 512750.297 10 0 56575 67500.00000 0 -15670009.894 -19934071.364 -2720190.356 10 0 56575 68400.00000 0 -15450850.047 -19413306.682 -5900245.133 10 0 56575 69300.00000 0 -14912912.792 -18647977.265 -8965614.215 10 0 56575 70200.00000 0 -14035897.812 -17693024.222 -11856761.978 10 0 56575 71100.00000 0 -12812171.440 -16608094.509 -14517574.164 10 0 56575 72000.00000 0 -11247320.640 -15454929.574 -16896445.067 10 0 56575 72900.00000 0 -9360159.247 -14294687.185 -18947273.848 10 0 56575 73800.00000 0 -7182186.068 -13185309.422 -20630351.176 10 0 56575 74700.00000 0 -4756517.395 -12179047.320 -21913119.741 10 0 56575 75600.00000 0 -2136338.179 -11320245.553 -22770794.995 10 0 56575 76500.00000 0 617064.097 -10643479.237 -23186835.185 10 0 56575 77400.00000 0 3436601.710 -10172119.932 -23153252.648 10 0 56575 78300.00000 0 6251930.482 -9917389.783 -22670761.287 10 0 56575 79200.00000 0 8992130.673 -9877942.411 -21748758.025 10 0 56575 80100.00000 0 11588415.003 -10039987.232 -20405138.949 10 0 56575 81000.00000 0 13976752.900 -10377951.445 -18665953.709 10 0 56575 81900.00000 0 16100303.485 -10855651.615 -16564904.504 10 0 56575 82800.00000 0 17911557.449 -11427925.723 -14142698.818 10 0 56575 83700.00000 0 19374099.938 -12042657.379 -11446267.641 10 0 56575 84600.00000 0 20463922.003 -12643107.468 -8527863.448 10 0 56575 85500.00000 0 21170226.509 -13170455.512 -5444054.643 10 0 56576 0.00000 0 21495695.425 -13566444.078 -2254635.274 10 0 56576 900.00000 0 21456207.402 -13776014.610 978529.817 10 0 56576 1800.00000 0 21080018.048 -13749824.215 4192701.286 10 0 56576 2700.00000 0 20406436.540 -13446535.291 7325481.285 10 0 56576 3600.00000 0 19484054.998 -12834782.236 10316024.597 10 0 56576 4500.00000 0 18368604.425 -11894730.020 13106221.486 10 0 56576 5400.00000 0 17120527.638 -10619158.082 15641829.016 10 0 56576 6300.00000 0 15802371.260 -9014022.071 17873528.583 10 0 56576 7200.00000 0 14476106.609 -7098468.128 19757888.758 10 0 56576 8100.00000 0 13200492.290 -4904297.230 21258214.480 10 0 56576 9000.00000 0 12028589.575 -2474900.177 22345265.910 10 0 56576 9900.00000 0 11005535.231 136293.813 22997832.666 10 0 56576 10800.00000 0 10166665.608 2867791.690 23203152.104 10 0 56576 11700.00000 0 9536070.989 5652353.188 22957163.238 10 0 56576 12600.00000 0 9125641.133 8419553.842 22264591.016 10 0 56576 13500.00000 0 8934642.214 11098488.351 21138858.988 10 0 56576 14400.00000 0 8949842.910 13620502.135 19601831.605 10 0 56576 15300.00000 0 9146184.247 15921837.440 17683390.807 10 0 56576 16200.00000 0 9487964.654 17946083.759 15420854.802 10 0 56576 17100.00000 0 9930489.833 19646330.427 12858250.089 10 0 56576 18000.00000 0 10422117.187 20986931.412 10045450.927 10 0 56576 18900.00000 0 10906607.633 21944808.788 7037203.193 10 0 56576 19800.00000 0 11325684.462 22510240.714 3892052.009 10 0 56576 20700.00000 0 11621689.989 22687101.545 671194.789 10 0 56576 21600.00000 0 11740226.520 22492545.008 -2562717.203 10 0 56576 22500.00000 0 11632668.914 21956144.997 -5746804.572 10 0 56576 23400.00000 0 11258441.578 21118531.501 -8819187.958 10 0 56576 24300.00000 0 10586962.899 20029580.546 -11720194.072 10 0 56576 25200.00000 0 9599174.485 18746235.661 -14393515.667 10 0 56576 26100.00000 0 8288590.328 17330053.730 -16787302.600 10 0 56576 27000.00000 0 6661821.498 15844579.230 -18855163.042 10 0 56576 27900.00000 0 4738554.044 14352657.606 -20557055.882 10 0 56576 28800.00000 0 2550980.872 12913800.554 -21860057.777 10 0 56576 29700.00000 0 142710.994 11581713.229 -22738991.042 10 0 56576 30600.00000 0 -2432798.863 10402086.101 -23176901.314 10 0 56576 31500.00000 0 -5114225.563 9410742.813 -23165376.810 10 0 56576 32400.00000 0 -7834692.322 8632220.196 -22704703.954 10 0 56576 33300.00000 0 -10524317.975 8078838.514 -21803857.023 10 0 56576 34200.00000 0 -13112898.080 7750299.628 -20480322.397 10 0 56576 35100.00000 0 -15532607.932 7633828.830 -18759760.802 10 0 56576 36000.00000 0 -17720616.603 7704853.699 -16675513.786 10 0 56576 36900.00000 0 -19621504.570 7928191.029 -14267963.390 10 0 56576 37800.00000 0 -21189385.468 8259691.863 -11583756.674 10 0 56576 38700.00000 0 -22389644.491 8648275.535 -8674909.182 10 0 56576 39600.00000 0 -23200221.457 9038267.314 -5597803.978 10 0 56576 40500.00000 0 -23612385.374 9371941.347 -2412104.900 10 0 56576 41400.00000 0 -23630968.218 9592161.802 820395.508 10 0 56576 42300.00000 0 -23274048.089 9645010.654 4036971.260 10 0 56576 43200.00000 0 -22572094.889 9482290.844 7175178.413 10 0 56576 44100.00000 0 -21566614.181 9063798.484 10174067.122 10 0 56576 45000.00000 0 -20308345.938 8359267.248 12975366.485 10 0 56576 45900.00000 0 -18855093.690 7349901.672 15524618.937 10 0 56576 46800.00000 0 -17269275.111 6029433.200 17772241.878 10 0 56576 47700.00000 0 -15615296.871 4404652.835 19674495.551 10 0 56576 48600.00000 0 -13956863.987 2495396.166 21194338.148 10 0 56576 49500.00000 0 -12354336.586 333979.454 22302151.309 10 0 56576 50400.00000 0 -10862245.122 -2035891.351 22976321.653 10 0 56576 51300.00000 0 -9527068.250 -4560694.751 23203666.843 10 0 56576 52200.00000 0 -8385366.621 -7179086.747 22979697.646 10 0 56576 53100.00000 0 -7462350.840 -9824230.726 22308710.550 10 0 56576 54000.00000 0 -6770943.556 -12426367.941 21203708.795 10 0 56576 54900.00000 0 -6311374.832 -14915522.040 19686152.927 10 0 56576 55800.00000 0 -6071327.476 -17224225.029 17785545.319 10 0 56576 56700.00000 0 -6026625.682 -19290151.116 15538856.444 10 0 56576 57600.00000 0 -6142437.325 -21058548.355 12989803.778 10 0 56576 58500.00000 0 -6374938.382 -22484366.315 10187997.389 10 0 56576 59400.00000 0 -6673368.225 -23533990.723 7187969.027 10 0 56576 60300.00000 0 -6982387.818 -24186512.492 4048103.986 10 0 56576 61200.00000 0 -7244639.882 -24434478.237 829497.273 10 0 56576 62100.00000 0 -7403401.510 -24284091.355 -2405242.870 10 0 56576 63000.00000 0 -7405215.750 -23754856.131 -5593219.926 10 0 56576 63900.00000 0 -7202389.783 -22878680.890 -8672477.711 10 0 56576 64800.00000 0 -6755253.149 -21698479.182 -11583208.046 10 0 56576 65700.00000 0 -6034079.863 -20266329.061 -14268913.485 10 0 56576 66600.00000 0 -5020592.883 -18641268.952 -16677502.205 10 0 56576 67500.00000 0 -3708987.147 -16886823.627 -18762294.008 10 0 56576 68400.00000 0 -2106427.918 -15068364.560 -20482918.400 10 0 56576 69300.00000 0 -233003.318 -13250415.516 -21806088.069 10 0 56576 70200.00000 0 1878867.261 -11494015.798 -22706233.843 10 0 56576 71100.00000 0 4185544.627 -9854250.681 -23165989.922 10 0 56576 72000.00000 0 6633755.312 -8378051.151 -23176521.078 10 0 56576 72900.00000 0 9162585.960 -7102353.476 -22737686.427 10 0 56576 73800.00000 0 11705804.710 -6052693.915 -21858037.296 10 0 56576 74700.00000 0 14194414.099 -5242295.848 -20554649.593 10 0 56576 75600.00000 0 16559330.781 -4671686.036 -18852793.929 10 0 56576 76500.00000 0 18734081.906 -4328854.945 -16785449.577 10 0 56576 77400.00000 0 20657407.178 -4189953.558 -14392671.095 10 0 56576 78300.00000 0 22275659.330 -4220496.881 -11720819.138 10 0 56576 79200.00000 0 23544903.808 -4377023.285 -8821669.452 10 0 56576 80100.00000 0 24432630.523 -4609139.830 -5751416.551 10 0 56576 81000.00000 0 24919006.481 -4861867.411 -2569590.645 10 0 56576 81900.00000 0 24997616.895 -5078186.893 662091.774 10 0 56576 82800.00000 0 24675663.515 -5201678.697 3880921.676 10 0 56576 83700.00000 0 23973611.567 -5179144.132 7024412.554 10 0 56576 84600.00000 0 22924299.668 -4963097.239 10031513.243 10 0 56576 85500.00000 0 21571549.607 -4514021.163 12843794.649 10 0 56577 0.00000 0 19968333.975 -3802292.770 15406587.106 10 0 56577 900.00000 0 18174578.008 -2809692.563 17670046.252 10 0 56577 1800.00000 0 16254687.832 -1530435.996 19590125.662 10 0 56577 2700.00000 0 14274908.402 28321.046 21129438.024 10 0 56577 3600.00000 0 12300621.583 1846523.575 22257987.280 10 0 56577 4500.00000 0 10393697.721 3891807.083 22953757.437 10 0 56577 5400.00000 0 8610011.357 6120611.874 23203146.417 10 0 56577 6300.00000 0 6997224.981 8479777.328 23001236.263 10 0 56577 7200.00000 0 5592933.526 10908550.692 22351894.092 10 0 56577 8100.00000 0 4423247.028 13340927.615 21267701.515 10 0 56577 9000.00000 0 3501870.486 15708227.455 19769713.461 10 0 56577 9900.00000 0 2829719.072 17941796.149 17887050.695 10 0 56577 10800.00000 0 2395084.177 19975723.940 15656333.636 10 0 56577 11700.00000 0 2174342.467 21749464.254 13120968.197 10 0 56577 12600.00000 0 2133177.151 23210243.873 10330297.554 10 0 56577 13500.00000 0 2228258.772 24315163.253 7338636.521 10 0 56577 14400.00000 0 2409313.278 25032898.726 4204207.684 10 0 56577 15300.00000 0 2621488.618 25344935.117 988000.760 10 0 56577 16200.00000 0 2807918.357 25246277.243 -2247421.867 10 0 56577 17100.00000 0 2912372.485 24745610.897 -5439149.272 10 0 56577 18000.00000 0 2881882.023 23864907.254 -8525150.991 10 0 56577 18900.00000 0 2669225.366 22638488.345 -11445486.258 10 0 56577 19800.00000 0 2235170.392 21111593.833 -14143469.463 10 0 56577 20700.00000 0 1550377.118 19338510.395 -16566768.857 10 0 56577 21600.00000 0 596880.234 17380343.010 -18668417.355 10 0 56577 22500.00000 0 -630911.127 15302522.173 -20407716.308 10 0 56577 23400.00000 0 -2125738.556 13172151.638 -21751015.425 10 0 56577 24300.00000 0 -3867564.597 11055307.375 -22672354.796 10 0 56577 25200.00000 0 -5824185.401 9014399.893 -23153957.693 10 0 56577 26100.00000 0 -7952360.657 7105708.990 -23186565.642 10 0 56577 27000.00000 0 -10199414.315 5377192.378 -22769610.309 10 0 56577 27900.00000 0 -12505240.352 3866657.923 -21911219.523 10 0 56577 28800.00000 0 -14804631.041 2600374.149 -20628057.726 10 0 56577 29700.00000 0 -17029832.030 1592175.331 -18945003.980 10 0 56577 30600.00000 0 -19113219.141 843097.078 -16894673.429 10 0 56577 31500.00000 0 -20989986.487 341556.512 -14516790.957 10 0 56577 32400.00000 0 -22600734.962 64068.534 -11857428.371 10 0 56577 33300.00000 0 -23893853.898 -23532.499 -8968119.010 10 0 56577 34200.00000 0 -24827596.896 35582.644 -5904866.155 10 0 56577 35100.00000 0 -25371765.286 191296.498 -2727063.684 10 0 56577 36000.00000 0 -25508928.667 388899.497 503650.658 10 0 56577 36900.00000 0 -25235131.039 571641.318 3724587.449 10 0 56577 37800.00000 0 -24560052.438 683371.000 6873220.237 10 0 56577 38700.00000 0 -23506618.623 671153.973 9888399.088 10 0 56577 39600.00000 0 -22110074.513 487754.819 12711539.189 10 0 56577 40500.00000 0 -20416559.565 93880.085 15287761.203 10 0 56577 41400.00000 0 -18481244.174 -539914.663 17566960.952 10 0 56577 42300.00000 0 -16366104.703 -1431735.258 19504787.288 10 0 56577 43200.00000 0 -14137429.872 -2587341.108 21063508.937 10 0 56577 44100.00000 0 -11863162.501 -3999663.222 22212753.269 10 0 56577 45000.00000 0 -9610187.560 -5648870.024 22930102.376 10 0 56577 45900.00000 0 -7441679.657 -7502979.916 23201534.700 10 0 56577 46800.00000 0 -5414620.557 -9518996.569 23021703.388 10 0 56577 47700.00000 0 -3577590.307 -11644520.781 22394045.620 10 0 56577 48600.00000 0 -1968923.969 -13819772.629 21330720.447 10 0 56577 49500.00000 0 -615310.635 -15979940.282 19852375.924 10 0 56577 50400.00000 0 469107.111 -18057757.649 17987749.660 10 0 56577 51300.00000 0 1283096.226 -19986203.286 15773110.206 10 0 56577 52200.00000 0 1838144.438 -21701207.538 13251549.871 10 0 56577 53100.00000 0 2157728.590 -23144254.145 10472142.711 10 0 56577 54000.00000 0 2276072.198 -24264766.868 7488984.236 10 0 56577 54900.00000 0 2236446.010 -25022180.586 4360131.880 10 0 56577 55800.00000 0 2089084.787 -25387609.508 1146467.578 10 0 56577 56700.00000 0 1888809.918 -25345042.281 -2089494.631 10 0 56577 57600.00000 0 1692459.914 -24892013.851 -5284831.893 10 0 56577 58500.00000 0 1556238.876 -24039726.184 -8377441.910 10 0 56577 59400.00000 0 1533096.281 -22812613.360 -11307253.751 10 0 56577 60300.00000 0 1670249.892 -21247370.106 -14017396.019 10 0 56577 61200.00000 0 2006957.053 -19391485.335 -16455299.334 10 0 56577 62100.00000 0 2572628.892 -17301343.030 -18573711.886 10 0 56577 63000.00000 0 3385367.099 -15039970.477 -20331608.829 10 0 56577 63900.00000 0 4450984.889 -12674528.418 -21694978.573 10 0 56577 64800.00000 0 5762553.318 -10273647.783 -22637471.820 10 0 56577 65700.00000 0 7300492.092 -7904723.559 -23140901.858 10 0 56577 66600.00000 0 9033201.254 -5631277.705 -23195587.519 10 0 56577 67500.00000 0 10918207.833 -3510499.585 -22800533.157 10 0 56577 68400.00000 0 12903780.261 -1591064.757 -21963442.842 10 0 56577 69300.00000 0 14930944.057 88678.728 -20700568.905 10 0 56577 70200.00000 0 16935815.787 1502082.703 -19036397.836 10 0 56577 71100.00000 0 18852159.148 2635074.383 -17003179.255 10 0 56577 72000.00000 0 20614057.579 3486499.788 -14640306.575 10 0 56577 72900.00000 0 22158592.918 4067921.952 -11993560.567 10 0 56577 73800.00000 0 23428418.980 4402883.281 -9114229.592 10 0 56577 74700.00000 0 24374122.953 4525663.575 -6058122.768 10 0 56577 75600.00000 0 24956275.998 4479586.386 -2884494.449 10 0 56577 76500.00000 0 25147087.036 4314945.225 345099.750 10 0 56577 77400.00000 0 24931589.983 4086637.222 3567993.451 10 0 56577 78300.00000 0 24308313.970 3851604.306 6721623.635 10 0 56577 79200.00000 0 23289407.630 3666190.242 9744744.808 10 0 56577 80100.00000 0 21900211.255 3583525.601 12578619.386 10 0 56577 81000.00000 0 20178293.881 3651051.770 15168160.940 10 0 56577 81900.00000 0 18171994.685 3908289.399 17463007.847 10 0 56577 82800.00000 0 15938528.995 4384946.510 19418506.096 10 0 56577 83700.00000 0 13541737.469 5099447.249 20996581.969 10 0 56577 84600.00000 0 11049571.907 6057944.706 22166487.401 10 0 56577 85500.00000 0 8531422.329 7253860.756 22905403.306 10 0 56578 0.00000 0 6055396.485 8667973.799 23198888.967 10 0 56578 900.00000 0 3685664.979 10269052.533 23041168.492 10 0 56578 1800.00000 0 1479982.337 12015009.609 22435248.518 10 0 56578 2700.00000 0 -512512.240 13854529.398 21392864.427 10 0 56578 3600.00000 0 -2253124.088 15729101.337 19934255.834 10 0 56578 4500.00000 0 -3714985.295 17575374.937 18087775.184 10 0 56578 5400.00000 0 -4883933.296 19327737.808 15889336.793 10 0 56578 6300.00000 0 -5758849.712 20921008.671 13381716.706 10 0 56578 7200.00000 0 -6351446.235 22293131.999 10613717.000 10 0 56578 8100.00000 0 -6685507.809 23387760.713 7639210.901 10 0 56578 9000.00000 0 -6795626.408 24156617.831 4516087.649 10 0 56578 9900.00000 0 -6725480.319 24561537.188 1305118.369 10 0 56578 10800.00000 0 -6525733.235 24576096.968 -1931234.214 10 0 56578 11700.00000 0 -6251643.567 24186777.041 -5130038.162 10 0 56578 12600.00000 0 -5960486.582 23393591.434 -8229122.014 10 0 56578 13500.00000 0 -5708899.722 22210169.556 -11168287.115 10 0 56578 14400.00000 0 -5550264.449 20663283.215 -13890478.446 10 0 56578 15300.00000 0 -5532236.015 18791839.855 -16342890.873 10 0 56578 16200.00000 0 -5694525.890 16645384.820 -18477989.439 10 0 56578 17100.00000 0 -6067030.574 14282175.775 -20254424.394 10 0 56578 18000.00000 0 -6668385.511 11766910.103 -21637823.883 10 0 56578 18900.00000 0 -7505004.760 9168200.038 -22601449.985 10 0 56578 19800.00000 0 -8570646.622 6555900.308 -23126706.521 10 0 56578 20700.00000 0 -9846523.294 3998398.794 -23203489.846 10 0 56578 21600.00000 0 -11301950.156 1559981.674 -22830376.879 10 0 56578 22500.00000 0 -12895507.840 -701618.896 -22014647.424 10 0 56578 23400.00000 0 -14576669.145 -2737394.202 -20772140.784 10 0 56578 24300.00000 0 -16287823.624 -4508857.046 -19126949.510 10 0 56578 25200.00000 0 -17966616.265 -5989395.332 -17110955.915 10 0 56578 26100.00000 0 -19548503.524 -7165126.269 -14763219.790 10 0 56578 27000.00000 0 -20969420.815 -8035216.850 -12129228.424 10 0 56578 27900.00000 0 -22168450.692 -8611658.362 -9260022.535 10 0 56578 28800.00000 0 -23090380.494 -8918505.070 -6211214.282 10 0 56578 29700.00000 0 -23688042.544 -8990609.645 -3041915.613 10 0 56578 30600.00000 0 -23924338.658 -8871908.897 186402.896 10 0 56578 31500.00000 0 -23773863.546 -8613332.187 3411100.815 10 0 56578 32400.00000 0 -23224058.282 -8270420.963 6569581.442 10 0 56578 33300.00000 0 -22275844.395 -7900760.080 9600506.542 10 0 56578 34200.00000 0 -20943710.918 -7561329.683 12444988.473 10 0 56578 35100.00000 0 -19255249.524 -7305889.939 15047736.262 10 0 56578 36000.00000 0 -17250156.030 -7182509.641 17358133.142 10 0 56578 36900.00000 0 -14978738.998 -7231343.782 19331224.228 10 0 56578 37800.00000 0 -12499996.814 -7482754.761 20928594.942 10 0 56578 38700.00000 0 -9879342.650 -7955857.490 22119122.926 10 0 56578 39600.00000 0 -7186071.650 -8657550.855 22879588.582 10 0 56578 40500.00000 0 -4490675.336 -9582077.506 23195132.198 10 0 56578 41400.00000 0 -1862114.657 -10711131.801 23059548.577 10 0 56578 42300.00000 0 634834.972 -12014512.492 22475413.085 10 0 56578 43200.00000 0 2942056.457 -13451293.895 21454036.371 10 0 56578 44100.00000 0 5010278.882 -14971467.224 20015248.183 10 0 56578 45000.00000 0 6800889.539 -16517983.809 18187014.084 10 0 56578 45900.00000 0 8287295.002 -18029114.729 16004892.153 10 0 56578 46800.00000 0 9455775.031 -19441027.790 13511339.926 10 0 56578 47700.00000 0 10305794.361 -20690473.219 10754885.022 10 0 56578 48600.00000 0 10849760.450 -21717464.649 7789175.718 10 0 56578 49500.00000 0 11112238.698 -22467841.929 4671930.268 10 0 56578 50400.00000 0 11128659.676 -22895607.103 1463806.128 10 0 56578 51300.00000 0 10943574.514 -22964934.535 -1772788.139 10 0 56578 52200.00000 0 10608533.809 -22651769.950 -4974914.289 10 0 56578 53100.00000 0 10179681.250 -21944950.740 -8080334.348 10 0 56578 54000.00000 0 9715165.144 -20846800.258 -11028724.424 10 0 56578 54900.00000 0 9272478.465 -19373171.220 -13762848.194 10 0 56578 55800.00000 0 8905840.671 -17552936.676 -16229666.873 10 0 56578 56700.00000 0 8663732.387 -15426950.265 -18381364.246 10 0 56578 57600.00000 0 8586687.091 -13046519.575 -20176267.277 10 0 56578 58500.00000 0 8705432.735 -10471456.639 -21579645.160 10 0 56578 59400.00000 0 9039461.137 -7767786.864 -22564372.329 10 0 56578 60300.00000 0 9596084.868 -5005211.393 -23111443.738 10 0 56578 61200.00000 0 10370020.778 -2254427.831 -23210333.499 10 0 56578 62100.00000 0 11343517.356 415580.405 -22859190.957 10 0 56578 63000.00000 0 12487020.587 2940174.939 -22064871.159 10 0 56578 63900.00000 0 13760350.590 5261505.712 -20842799.553 10 0 56578 64800.00000 0 15114340.328 7330666.938 -19216673.604 10 0 56578 65700.00000 0 16492868.513 9109477.791 -17218006.854 10 0 56578 66600.00000 0 17835202.408 10571815.237 -14885523.685 10 0 56578 67500.00000 0 19078553.302 11704444.866 -12264415.781 10 0 56578 68400.00000 0 20160738.354 12507316.226 -9405473.775 10 0 56578 69300.00000 0 21022837.702 12993311.137 -6364110.127 10 0 56578 70200.00000 0 21611735.687 13187456.220 -3199291.393 10 0 56578 71100.00000 0 21882439.410 13125633.165 27600.020 10 0 56578 72000.00000 0 21800076.834 12852841.251 3253952.849 10 0 56578 72900.00000 0 21341489.766 12421085.497 6417139.858 10 0 56578 73800.00000 0 20496353.754 11886979.672 9455733.102 10 0 56578 74700.00000 0 19267776.644 11309165.491 12310697.681 10 0 56578 75600.00000 0 17672349.305 10745657.211 14926540.618 10 0 56578 76500.00000 0 15739644.943 10251224.093 17252392.241 10 0 56578 77400.00000 0 13511186.618 9874921.709 19242998.713 10 0 56578 78300.00000 0 11038924.826 9657876.835 20859606.201 10 0 56578 79200.00000 0 8383287.559 9631420.080 22070719.324 10 0 56578 80100.00000 0 5610883.260 9815645.741 22852718.869 10 0 56578 81000.00000 0 2791951.581 10218460.431 23190326.648 10 0 56578 81900.00000 0 -2332.575 10835161.445 23076908.214 10 0 56578 82800.00000 0 -2702589.923 11648563.515 22514607.265 10 0 56578 83700.00000 0 -5243889.326 12629669.478 21514308.785 10 0 56578 84600.00000 0 -7568211.925 13738857.384 20095431.218 10 0 56578 85500.00000 0 -9626624.415 14927534.642 18285551.318 99